Overview Statistics Trail Chart Weather Telemetry Raw packets
 

This is the latest recevied weather packets stored in our database for station/object KB1RMA-4. If no packets are shown the sender has not sent any weather packets the latest 10 day(s).

<< 51 52 53 54 55 56 57 >>
Time Temp. Humidity Pressure Rain* Wind** Luminosity Snow
1788286976 18.33° C 85% 1018.4 hPa 0 mm - 167 W/m² -
1788286671 18.33° C 85% 1018.4 hPa 0 mm - 176 W/m² -
1788286366 18.33° C 86% 1018.4 hPa 0 mm - 178 W/m² -
1788286065 18.33° C 85% 1018.3 hPa 0 mm - 186 W/m² -
1788285764 18.33° C 85% 1018.3 hPa 0 mm - 240 W/m² -
1788285463 18.33° C 85% 1018.2 hPa 0 mm - 238 W/m² -
1788285158 18.33° C 86% 1018.1 hPa 0 mm - 264 W/m² -
1788284853 18.33° C 86% 1018.2 hPa 0 mm - 304 W/m² -
1788284549 17.78° C 86% 1018.1 hPa 0 mm - 202 W/m² -
1788284245 17.78° C 85% 1018.1 hPa 0 mm - 196 W/m² -
1788283939 17.78° C 85% 1018.4 hPa 2.29 mm - 206 W/m² -
1788283636 17.78° C 85% 1018.3 hPa 2.29 mm - 195 W/m² -
1788283334 17.78° C 84% 1018.6 hPa 0 mm - 184 W/m² -
1788283033 17.78° C 84% 1018.5 hPa 0 mm - 147 W/m² -
1788282727 17.78° C 84% 1018.5 hPa 0 mm - 161 W/m² -
1788282426 17.78° C 84% 1018.5 hPa 0 mm - 152 W/m² -
1788282121 17.78° C 84% 1018.3 hPa 0 mm - 160 W/m² -
1788281819 18.33° C 84% 1018.3 hPa 0 mm - 188 W/m² -
1788281515 18.33° C 84% 1018.5 hPa 0 mm - 181 W/m² -
1788281212 17.78° C 85% 1018.6 hPa 0 mm - 185 W/m² -
1788280912 17.78° C 86% 1018.4 hPa 0 mm - 271 W/m² -
1788280607 17.78° C 86% 1018.5 hPa 0 mm - 267 W/m² -
1788280306 17.78° C 87% 1018.5 hPa 0 mm - 183 W/m² -
1788280002 17.78° C 88% 1018.5 hPa 0 mm - 164 W/m² -
1788279701 17.22° C 89% 1018.5 hPa 0 mm - 151 W/m² -

* Rain latest hour (hover to see other rain measurements)
** Current wind speed in m/s (hover to see current wind gust speed)